Main page
METAR-TAF:

METAR-TAF

Airports :

Oil platform

A12-cpp, Netherlands

latitude: 55-23-57N, longitude: 3-48-37E, elevation: 33 m

Current weather observation

The report was made 31 minutes ago, at 10:55 UTC
Wind 24 kt from the South/Southwest, varying between South/Southeast and West/Southwest
Temperature 10°C
Humidity 87%
Pressure 997 hPa
Visibility 10 km or more

METAR: EHAK 091055Z AUTO 21024KT 160V240 9999 BKN019/// OVC022/// 10/08 Q0997

Time: 13:26 (11:26 UTC)


TAF: missing

Weather observations and forecasts of more than 4000 airports (METAR and TAF reports).

The available stations are represented by yellow and red dots on the map.

Hover mouse over dot to see the name of the station.

Then click to see weather observations and forecasts.

To change the map : click on the green buttons with a black cross to zoom in, on the green button with a dash to zoom out, or on the green arrows for adjacent maps.


METAR-TAF: